Location: His
(43.0658°N, 0.9682°E)
Time: 03:27:32
(UTC+00:00)

Daily predictions for brighter satellites

Satellite Brightness Start Highest point End
(mag) Time Altitude Azimuth Time Altitude Azimuth Time Altitude Azimuth
SL-16 R/B 4.0 01:19:18 32° NNE 01:19:18 32° NNE 01:23:16 10° N
ADEOS II 4.5 01:18:53 10° NE 01:20:30 18° NE 01:20:30 18° NE
Cosmos 2278 Rocket 4.4 01:47:12 18° NNW 01:47:12 18° NNW 01:49:11 10° N
Cosmos 1943 Rocket 4.0 01:48:36 25° N 01:48:36 25° N 01:51:02 10° NNE
CZ-2D R/B 4.0 01:54:47 10° N 01:57:00 26° N 01:57:00 26° N
Resurs 1-4 Rocket 3.9 01:56:56 10° N 01:59:10 26° N 01:59:10 26° N
IDEFIX/ARIANE 42P 4.2 02:09:28 10° N 02:11:53 28° N 02:11:53 28° N
SeaSat 1 3.9 02:18:58 10° NNE 02:21:49 34° NE 02:21:49 34° NE
ATLAS CENTAUR R/B 3.8 02:27:11 22° NNE 02:27:11 22° NNE 02:28:47 10° NNE
Lacrosse 5 3.4 02:29:14 31° NNE 02:29:14 31° NNE 02:32:14 10° NE
Cosmos 2285 Rocket 4.4 02:31:11 58° N 02:31:11 58° N 02:36:12 10° NNE
ATLAS 5 CENTAUR R/B 4.2 02:33:43 12° N 02:33:43 12° N 02:34:21 10° N
Cosmos 1709 Rocket 4.1 02:55:58 59° NW 02:55:58 59° NW 03:01:12 10° N
Cosmos 2181 Rocket 4.2 02:51:48 10° N 02:58:15 73° E 03:00:36 41° SSE
SL-16 R/B 4.0 03:04:22 22° NW 03:04:22 22° NW 03:06:50 10° NNW
Cosmos 2369 Rocket 2.9 03:03:42 40° NNW 03:03:42 40° NNW 03:08:06 10° NNE
ADEOS II 3.4 02:58:24 10° N 03:01:24 28° NNW 03:01:24 28° NNW
Meteor 2-20 Rocket 4.3 02:59:19 10° N 03:05:27 85° E 03:06:36 61° SSE
Helios 1A 4.3 03:05:41 31° ESE 03:06:48 37° ENE 03:10:38 10° N
Cosmos 923 Rocket 4.1 03:08:46 71° ESE 03:08:48 71° ESE 03:13:59 10° NNE
CZ-2C R/B 4.3 03:09:14 10° NNE 03:13:36 34° E 03:16:15 20° SSE
Cosmos 1833 4.4 03:09:03 10° NNW 03:13:40 57° NW 03:13:40 57° NW
CZ-2C R/B 2.9 03:10:31 10° NNE 03:15:16 56° E 03:16:13 48° SE
Cosmos 1680 Rocket 3.8 03:16:16 54° SSE 03:17:08 62° ESE 03:22:21 10° NNE
Meteor 1-26 Rocket 4.2 03:16:41 56° SSE 03:17:54 77° E 03:23:38 10° NNE
NOSS 3-3 (A) 3.8 03:18:44 60° WNW 03:19:07 62° NW 03:25:28 10° NNE
NOSS 3-3 (C) 3.8 03:18:50 61° WNW 03:19:13 63° NW 03:25:35 10° NNE
BREEZE-M DEB (TANK) 4.1 03:17:33 46° W 03:19:39 69° NNW 03:23:15 10° ENE
Cosmos 1842 Rocket 3.8 03:21:11 67° NNE 03:21:11 67° NNE 03:25:00 10° N
CZ-2C R/B 2.7 03:19:30 23° SSE 03:23:08 83° ENE 03:28:42 10° NNW
FENGYUN 3A 3.7 03:17:54 10° N 03:23:11 60° WNW 03:23:11 60° WNW
Cosmos 2112 Rocket 4.2 03:26:32 46° SSE 03:27:57 66° ESE 03:33:11 10° NNE
Cosmos 1943 Rocket 4.4 03:30:06 11° NW 03:30:33 11° NW 03:31:55 10° NNW
Genesis I 3.7 03:30:52 55° ESE 03:30:52 55° ESE 03:34:27 10° NE
IRS-1D 3.5 03:27:24 10° N 03:32:11 58° WNW 03:32:11 58° WNW
ARIANE 5 R/B 4.2 03:27:49 10° NE 03:32:25 31° E 03:37:00 10° SSE
Timation 1 Rocket 4.2 03:28:27 10° NNW 03:34:30 89° WSW 03:40:30 10° SSE
ARGOS Delta rocket 4.4 03:36:52 37° NW 03:36:52 37° NW 03:39:45 10° NNW
ALOS 2.5 03:31:39 10° N 03:35:46 51° NW 03:35:46 51° NW
Cosmos 2056 Rocket 4.0 03:33:45 10° NNW 03:38:54 59° ENE 03:44:05 10° SSE
CZ-2D R/B 4.3 03:37:31 10° NW 03:38:19 11° NW 03:38:19 11° NW
Cosmos 2074 Rocket 3.9 03:37:02 33° SSW 03:40:07 83° W 03:46:27 10° N
Resurs 1-4 Rocket 4.4 03:39:57 10° NW 03:40:15 10° NW 03:40:15 10° NW
Cosmos 1500 Rocket 3.9 03:37:54 10° N 03:42:11 64° E 03:46:29 10° SSE
Cosmos 1867 3.4 03:40:03 10° NW 03:45:28 65° WSW 03:50:50 10° SSE
Cosmos 1805 Rocket 4.3 03:44:45 10° N 03:49:07 54° E 03:53:28 10° SSE
USA 276 3.1 03:51:00 41° NE 03:51:00 41° NE 03:53:03 10° ENE
Cosmos 1624 Rocket 4.2 03:45:52 10° NNW 03:51:13 75° ENE 03:56:29 10° SSE
Cosmos 1420 Rocket 4.1 03:48:27 10° NNW 03:53:39 75° ENE 03:58:50 10° SSE
Cosmos 2221 4.0 03:56:25 23° NW 03:56:25 23° NW 03:58:56 10° NNW
Meteor 2-6 Rocket 4.4 03:52:38 13° S 03:58:04 82° E 04:04:04 10° NNE
Meteor 1-14 Rocket 4.1 03:53:09 10° N 03:58:43 89° E 04:04:19 10° S
CBERS-1 4.0 03:54:57 10° N 04:00:00 62° WNW 04:02:11 33° SW
SeaSat 1 3.9 03:57:18 10° N 04:00:55 21° NW 04:01:35 20° WNW
USA 281 4.4 03:56:55 10° SE 04:03:03 44° ENE 04:09:13 10° NNW
ATLAS CENTAUR R/B 3.7 04:02:53 13° NW 04:03:29 13° NW 04:05:40 10° N
Cosmos 1461 2.9 04:01:55 39° SSW 04:03:30 89° ESE 04:08:04 10° NE
Cosmos 1743 3.9 04:05:26 10° N 04:09:02 43° ENE 04:12:35 10° SSE
Cosmos 1295 Rocket 4.5 04:05:24 15° SSW 04:10:40 67° W 04:16:57 10° N
Lacrosse 5 3.9 04:08:25 12° NW 04:11:26 19° NNW 04:15:02 10° NNE
PAYLOAD A 4.4 04:09:37 10° N 04:14:42 45° WNW 04:17:11 26° SW
GEOS 3 Rocket 3.5 04:10:01 10° SSE 04:15:11 72° SW 04:20:30 10° NW
SL-27 R/B 2.0 04:14:14 10° NNW 04:17:23 63° WSW 04:20:32 10° S
Cosmos 1151 Rocket 3.5 04:13:40 10° S 04:17:57 63° E 04:22:14 10° NNE
Envisat 3.0 04:21:35 10° N 04:26:36 61° WNW 04:31:27 11° SSW
IRS-1C 4.1 04:25:25 10° N 04:30:44 71° WNW 04:36:01 10° SSW
DELTA 2 R/B (1) 3.7 04:27:18 23° WSW 04:30:48 62° S 04:36:20 10° E
Cosmos 1697 Rocket 4.3 04:27:03 10° SSE 04:32:05 35° ESE 04:37:07 10° NE
YAOGAN 6 3.2 04:30:57 10° N 04:34:10 33° WNW 04:35:37 23° WSW
COSMOS 2455 3.0 04:29:57 10° SSW 04:35:57 77° ESE 04:42:00 10° NNE
Meteor 1-27 Rocket 4.1 04:30:14 10° S 04:36:00 69° E 04:41:41 10° NNE
Cosmos 1339 Rocket 4.4 04:30:32 10° N 04:36:39 86° W 04:42:48 10° S
Cosmos 1666 Rocket 4.0 04:32:24 10° N 04:36:42 65° E 04:41:00 10° SSE
SL-19 R/B 4.3 04:31:39 10° N 04:36:43 51° WNW 04:41:43 10° SW
Sich 1 3.2 04:33:19 10° NNW 04:37:37 52° W 04:41:52 10° S
Cosmos 1437 Rocket 3.5 04:36:48 10° N 04:40:35 54° ENE 04:44:16 10° SSE
Cosmos 405 Rocket 2.7 04:37:34 10° S 04:41:10 76° E 04:44:48 10° NNE
Helios 1A 4.3 04:42:07 18° W 04:42:20 18° W 04:45:15 10° NW
ATLAS 2AS CENTAUR R/B 4.4 04:39:04 10° NNW 04:45:22 33° NE 04:51:18 10° E
Cosmos 1743 Rocket 4.4 04:42:50 10° NNW 04:46:44 30° W 04:50:37 10° SSW
Cosmos 1536 2.7 04:44:07 10° N 04:48:06 82° W 04:52:04 10° S
SAR-Lupe-2 4.3 04:45:20 10° N 04:48:35 33° WNW 04:51:21 13° SW
Cosmos 1633 Rocket 3.3 04:46:18 10° N 04:50:45 76° E 04:55:07 10° SSE
CZ-2C R/B 3.9 04:49:48 10° NNW 04:53:03 18° WNW 04:55:34 13° W
CZ-2C R/B 3.9 04:49:21 10° N 04:53:21 27° WNW 04:57:19 11° WSW
Cosmos 2297 Rocket 2.2 04:49:01 10° NNW 04:54:44 89° ENE 05:00:23 10° SSE
H-2A R/B 2.8 04:54:18 10° N 04:57:47 48° WNW 05:01:14 10° SSW
CZ-2D R/B 3.7 04:54:47 10° N 04:58:53 48° WNW 05:02:54 10° SW
NOAA 11 4.4 04:53:56 10° N 04:59:12 52° WNW 05:04:28 10° SW
Cosmos 1484 Rocket 3.8 04:56:15 10° NNW 04:59:23 26° WNW 05:02:34 10° SW
Meteor 1-11 Rocket 3.7 04:56:57 10° NNW 05:02:25 58° W 05:07:48 10° S
NOSS 3-4 (A) 4.2 04:57:07 10° NW 05:03:57 49° WSW 05:11:38 10° S
CZ-2C R/B 4.3 05:01:15 10° WSW 05:04:00 14° W 05:06:46 10° WNW
NOSS 3-4 (C) 4.2 04:57:13 10° NW 05:04:05 50° WSW 05:11:46 10° S
Cosmos 2219 4.1 05:04:22 10° NNW 05:09:57 54° ENE 05:15:30 10° SE
SJ-12 4.0 05:06:08 10° NNE 05:10:10 83° ESE 05:14:10 10° S
Cosmos 2227 Rocket 2.5 05:05:33 10° NNW 05:11:14 75° ENE 05:16:51 10° SSE
ARIANE 5 R/B 3.3 05:06:49 10° N 05:11:28 34° WNW 05:16:07 10° SW
GP-B 3.7 05:08:49 10° NNW 05:12:50 34° W 05:16:48 10° SW
CZ-4C R/B 4.1 05:10:01 10° SSE 05:13:19 49° ENE 05:16:42 10° N
NOSS 2-1 (C) 4.2 05:09:20 10° NW 05:13:50 54° WSW 05:20:11 10° SSE
USA 290 4.2 05:11:45 10° S 05:14:39 32° ESE 05:17:34 10° NE
NOSS 2-1 (D) 4.3 05:14:23 10° NW 05:18:52 49° WSW 05:25:07 10° SSE
H-2A R/B 2.5 05:15:18 10° NNE 05:20:12 63° ESE 05:25:03 10° S
Meteor 1-19 Rocket 4.4 05:14:25 10° SSW 05:20:15 80° W 05:26:16 10° N
Cosmos 2218 Rocket 4.1 05:15:53 10° SSW 05:22:06 59° W 05:28:25 10° N
